Time,TemperatureF,DewpointF,PressureIn,WindDirection,WindDirectionDegrees,WindSpeedMPH,WindSpeedGustMPH,Humidity,HourlyPrecipIn,Conditions,Clouds,dailyrainin,SoftwareType,DateUTC
2013-05-25 00:02:00,56.0,50.0,-100.00,ESE,120,16.0,25.0,81,0.00,,,0.00,,2013-05-25 05:02:00,
2013-05-25 00:12:00,56.0,50.0,-100.00,East,100,16.0,27.0,82,0.00,,,0.00,,2013-05-25 05:12:00,
2013-05-25 00:22:00,55.0,50.0,-100.00,ESE,105,15.0,26.0,83,0.00,,,0.00,,2013-05-25 05:22:00,
2013-05-25 00:32:00,55.0,50.0,-100.00,ESE,105,12.0,24.0,83,0.00,,,0.00,,2013-05-25 05:32:00,
2013-05-25 00:42:00,55.0,50.0,-100.00,ESE,120,16.0,27.0,82,0.00,,,0.00,,2013-05-25 05:42:00,
2013-05-25 00:52:00,56.0,50.0,-100.00,ESE,115,17.0,27.0,81,0.00,,,0.00,,2013-05-25 05:52:00,
2013-05-25 01:02:00,56.0,50.0,-100.00,SE,125,17.0,26.0,80,0.00,,,0.00,,2013-05-25 06:02:00,
2013-05-25 01:12:00,56.0,50.0,-100.00,ESE,110,17.0,24.0,80,0.00,,,0.00,,2013-05-25 06:12:00,
2013-05-25 01:21:00,56.0,50.0,-100.00,ESE,120,19.0,24.0,79,0.00,,,0.00,,2013-05-25 06:21:00,
2013-05-25 01:32:00,56.0,50.0,-100.00,ESE,120,19.0,29.0,78,0.00,,,0.00,,2013-05-25 06:32:00,
2013-05-25 01:42:00,56.0,48.0,-100.00,ESE,120,20.0,27.0,77,0.00,,,0.00,,2013-05-25 06:42:00,
2013-05-25 01:52:00,56.0,48.0,-100.00,ESE,110,17.0,24.0,74,0.00,,,0.00,,2013-05-25 06:52:00,
2013-05-25 02:01:00,56.0,48.0,-100.00,ESE,120,19.0,26.0,74,0.00,,,0.00,,2013-05-25 07:01:00,
2013-05-25 02:11:00,56.0,48.0,-100.00,ESE,120,17.0,28.0,72,0.00,,,0.00,,2013-05-25 07:11:00,
2013-05-25 02:21:00,56.0,48.0,-100.00,ESE,105,16.0,27.0,72,0.00,,,0.00,,2013-05-25 07:21:00,
2013-05-25 02:31:00,56.0,48.0,-100.00,ESE,105,16.0,26.0,71,0.00,,,0.00,,2013-05-25 07:31:00,
2013-05-25 02:42:00,56.0,48.0,-100.00,SE,125,18.0,26.0,71,0.00,,,0.00,,2013-05-25 07:42:00,
2013-05-25 02:52:00,56.0,46.0,-100.00,ESE,120,19.0,24.0,71,0.00,,,0.00,,2013-05-25 07:52:00,
2013-05-25 03:02:00,56.0,46.0,-100.00,ESE,120,17.0,26.0,71,0.00,,,0.00,,2013-05-25 08:02:00,
2013-05-25 03:11:00,56.0,46.0,-100.00,ESE,120,18.0,27.0,70,0.00,,,0.00,,2013-05-25 08:11:00,
2013-05-25 03:22:00,56.0,46.0,-100.00,ESE,115,17.0,28.0,70,0.00,,,0.00,,2013-05-25 08:22:00,
2013-05-25 03:32:00,56.0,46.0,-100.00,ESE,110,19.0,27.0,71,0.00,,,0.00,,2013-05-25 08:32:00,
2013-05-25 03:42:00,56.0,46.0,-100.00,ESE,120,18.0,27.0,71,0.00,,,0.00,,2013-05-25 08:42:00,
2013-05-25 03:51:00,56.0,46.0,-100.00,ESE,115,19.0,28.0,70,0.00,,,0.00,,2013-05-25 08:51:00,
2013-05-25 04:02:00,56.0,46.0,-100.00,ESE,115,18.0,26.0,71,0.00,,,0.00,,2013-05-25 09:02:00,
2013-05-25 04:11:00,56.0,46.0,-100.00,ESE,115,16.0,27.0,71,0.00,,,0.00,,2013-05-25 09:11:00,
2013-05-25 04:21:00,56.0,46.0,-100.00,ESE,120,18.0,25.0,71,0.00,,,0.00,,2013-05-25 09:21:00,
2013-05-25 04:33:00,56.0,46.0,-100.00,ESE,120,17.0,27.0,71,0.00,,,0.00,,2013-05-25 09:33:00,
2013-05-25 04:42:00,56.0,46.0,-100.00,ESE,110,17.0,24.0,71,0.00,,,0.00,,2013-05-25 09:42:00,
2013-05-25 04:52:00,56.0,46.0,-100.00,SE,125,20.0,24.0,71,0.00,,,0.00,,2013-05-25 09:52:00,
2013-05-25 05:02:00,56.0,46.0,-100.00,ESE,115,22.0,29.0,71,0.00,,,0.00,,2013-05-25 10:02:00,
2013-05-25 05:12:00,56.0,46.0,-100.00,ESE,120,20.0,28.0,71,0.00,,,0.00,,2013-05-25 10:12:00,
2013-05-25 05:22:00,56.0,46.0,-100.00,ESE,120,19.0,28.0,72,0.00,,,0.00,,2013-05-25 10:22:00,
2013-05-25 05:32:00,56.0,46.0,-100.00,ESE,120,18.0,29.0,71,0.00,,,0.00,,2013-05-25 10:32:00,
2013-05-25 05:42:00,56.0,46.0,-100.00,ESE,120,17.0,29.0,71,0.00,,,0.00,,2013-05-25 10:42:00,
2013-05-25 05:52:00,56.0,46.0,-100.00,ESE,120,18.0,28.0,71,0.00,,,0.00,,2013-05-25 10:52:00,
2013-05-25 06:02:00,56.0,46.0,-100.00,ESE,110,19.0,25.0,70,0.00,,,0.00,,2013-05-25 11:02:00,
2013-05-25 06:12:00,56.0,46.0,-100.00,ESE,110,15.0,24.0,71,0.00,,,0.00,,2013-05-25 11:12:00,
2013-05-25 06:21:00,55.0,46.0,-100.00,ESE,120,17.0,25.0,71,0.00,,,0.00,,2013-05-25 11:21:00,
2013-05-25 06:32:00,55.0,46.0,-100.00,ESE,105,16.0,22.0,71,0.00,,,0.00,,2013-05-25 11:32:00,
2013-05-25 06:41:00,55.0,46.0,-100.00,ESE,105,15.0,22.0,71,0.00,,,0.00,,2013-05-25 11:41:00,
2013-05-25 06:52:00,55.0,46.0,-100.00,ESE,120,15.0,26.0,71,0.00,,,0.00,,2013-05-25 11:52:00,
2013-05-25 07:01:00,55.0,46.0,-100.00,ESE,115,18.0,24.0,71,0.00,,,0.00,,2013-05-25 12:01:00,
2013-05-25 07:12:00,55.0,46.0,-100.00,SE,125,17.0,24.0,71,0.00,,,0.00,,2013-05-25 12:12:00,
2013-05-25 07:22:00,55.0,46.0,-100.00,ESE,120,15.0,24.0,72,0.00,,,0.00,,2013-05-25 12:22:00,
2013-05-25 07:32:00,55.0,46.0,-100.00,ESE,105,13.0,22.0,74,0.00,,,0.00,,2013-05-25 12:32:00,
2013-05-25 07:42:00,55.0,48.0,-100.00,ESE,120,13.0,21.0,75,0.00,,,0.00,,2013-05-25 12:42:00,
2013-05-25 07:52:00,55.0,48.0,-100.00,ESE,105,13.0,21.0,74,0.00,,,0.00,,2013-05-25 12:52:00,
2013-05-25 08:02:00,55.0,48.0,-100.00,ESE,105,11.0,19.0,75,0.00,,,0.00,,2013-05-25 13:02:00,
2013-05-25 08:11:00,55.0,48.0,-100.00,ESE,115,15.0,22.0,76,0.00,,,0.00,,2013-05-25 13:11:00,
2013-05-25 08:21:00,55.0,48.0,-100.00,ESE,110,13.0,21.0,75,0.00,,,0.00,,2013-05-25 13:21:00,
2013-05-25 08:32:00,55.0,48.0,-100.00,ESE,105,14.0,20.0,75,0.00,,,0.00,,2013-05-25 13:32:00,
2013-05-25 08:42:00,56.0,48.0,-100.00,ESE,120,15.0,23.0,75,0.00,,,0.00,,2013-05-25 13:42:00,
2013-05-25 08:52:00,56.0,48.0,-100.00,ESE,120,17.0,26.0,74,0.00,,,0.00,,2013-05-25 13:52:00,
2013-05-25 09:02:00,57.0,48.0,-100.00,ESE,120,15.0,24.0,73,0.00,,,0.00,,2013-05-25 14:02:00,
2013-05-25 09:11:00,57.0,48.0,-100.00,SE,125,17.0,24.0,72,0.00,,,0.00,,2013-05-25 14:11:00,
2013-05-25 09:22:00,57.0,48.0,-100.00,SE,125,17.0,22.0,72,0.00,,,0.00,,2013-05-25 14:22:00,
2013-05-25 09:32:00,56.0,48.0,-100.00,SE,130,19.0,27.0,72,0.00,,,0.00,,2013-05-25 14:32:00,
2013-05-25 09:42:00,56.0,48.0,-100.00,SE,130,21.0,29.0,72,0.00,,,0.00,,2013-05-25 14:42:00,
2013-05-25 09:52:00,56.0,48.0,-100.00,SE,125,19.0,24.0,72,0.00,,,0.00,,2013-05-25 14:52:00,
2013-05-25 10:01:00,56.0,48.0,-100.00,SE,125,19.0,29.0,72,0.00,,,0.00,,2013-05-25 15:01:00,
2013-05-25 10:11:00,57.0,48.0,-100.00,SE,130,17.0,27.0,73,0.00,,,0.00,,2013-05-25 15:11:00,
2013-05-25 10:22:00,56.0,48.0,-100.00,ESE,115,20.0,30.0,73,0.00,,,0.00,,2013-05-25 15:22:00,
2013-05-25 10:33:00,56.0,48.0,-100.00,ESE,115,19.0,27.0,74,0.00,,,0.00,,2013-05-25 15:33:00,
2013-05-25 10:43:00,56.0,48.0,-100.00,SE,140,21.0,27.0,74,0.00,,,0.00,,2013-05-25 15:43:00,
2013-05-25 10:53:00,56.0,48.0,-100.00,SE,140,18.0,30.0,75,0.00,,,0.00,,2013-05-25 15:53:00,
2013-05-25 11:03:00,57.0,50.0,-100.00,SSE,150,20.0,27.0,75,0.00,,,0.00,,2013-05-25 16:03:00,
2013-05-25 11:12:00,57.0,50.0,-100.00,SE,125,17.0,27.0,75,0.00,,,0.00,,2013-05-25 16:12:00,
2013-05-25 11:23:00,57.0,50.0,-100.00,SE,130,21.0,27.0,76,0.00,,,0.00,,2013-05-25 16:23:00,
2013-05-25 11:32:00,58.0,50.0,-100.00,SE,125,15.0,25.0,76,0.00,,,0.00,,2013-05-25 16:32:00,
2013-05-25 11:42:00,57.0,50.0,-100.00,SE,130,16.0,25.0,77,0.00,,,0.00,,2013-05-25 16:42:00,
2013-05-25 11:52:00,58.0,50.0,-100.00,ESE,120,17.0,26.0,77,0.00,,,0.00,,2013-05-25 16:52:00,
2013-05-25 12:02:00,58.0,52.0,-100.00,SE,140,17.0,24.0,77,0.00,,,0.00,,2013-05-25 17:02:00,
2013-05-25 12:11:00,58.0,52.0,-100.00,SE,140,13.0,25.0,77,0.00,,,0.00,,2013-05-25 17:11:00,
2013-05-25 12:22:00,58.0,52.0,-100.00,SE,125,15.0,24.0,78,0.00,,,0.00,,2013-05-25 17:22:00,
2013-05-25 12:32:00,58.0,52.0,-100.00,SE,125,18.0,26.0,78,0.00,,,0.00,,2013-05-25 17:32:00,
2013-05-25 12:42:00,58.0,52.0,-100.00,ESE,120,17.0,24.0,78,0.00,,,0.00,,2013-05-25 17:42:00,
2013-05-25 12:52:00,58.0,52.0,-100.00,SE,130,15.0,24.0,79,0.00,,,0.00,,2013-05-25 17:52:00,
2013-05-25 13:01:00,58.0,52.0,-100.00,SE,135,14.0,21.0,78,0.00,,,0.00,,2013-05-25 18:01:00,
2013-05-25 13:11:00,58.0,52.0,-100.00,SE,130,15.0,24.0,77,0.00,,,0.00,,2013-05-25 18:11:00,
2013-05-25 13:21:00,58.0,52.0,-100.00,ESE,115,16.0,22.0,76,0.00,,,0.00,,2013-05-25 18:21:00,
2013-05-25 13:32:00,58.0,50.0,-100.00,SE,125,20.0,25.0,77,0.00,,,0.00,,2013-05-25 18:32:00,
2013-05-25 13:42:00,58.0,50.0,-100.00,ESE,110,16.0,27.0,77,0.00,,,0.00,,2013-05-25 18:42:00,
2013-05-25 13:52:00,58.0,50.0,-100.00,SE,125,17.0,26.0,77,0.00,,,0.00,,2013-05-25 18:52:00,
2013-05-25 14:01:00,57.0,50.0,-100.00,SE,130,16.0,22.0,77,0.00,,,0.00,,2013-05-25 19:01:00,
2013-05-25 14:11:00,57.0,50.0,-100.00,SE,130,17.0,28.0,78,0.00,,,0.00,,2013-05-25 19:11:00,
2013-05-25 14:21:00,57.0,50.0,-100.00,SE,130,17.0,25.0,78,0.00,,,0.00,,2013-05-25 19:21:00,
2013-05-25 14:32:00,57.0,50.0,-100.00,ESE,120,13.0,27.0,78,0.00,,,0.00,,2013-05-25 19:32:00,
2013-05-25 14:42:00,56.0,52.0,-100.00,SE,130,15.0,24.0,81,0.00,,,0.00,,2013-05-25 19:42:00,
2013-05-25 14:52:00,56.0,52.0,-100.00,SE,135,14.0,22.0,85,0.00,,,0.00,,2013-05-25 19:52:00,
2013-05-25 15:02:00,56.0,52.0,-100.00,SE,130,16.0,20.0,82,0.00,,,0.00,,2013-05-25 20:02:00,
2013-05-25 15:11:00,56.0,50.0,-100.00,SE,125,21.0,28.0,80,0.00,,,0.00,,2013-05-25 20:11:00,
2013-05-25 15:21:00,56.0,50.0,-100.00,SE,125,19.0,24.0,79,0.00,,,0.00,,2013-05-25 20:21:00,
2013-05-25 15:32:00,56.0,50.0,-100.00,ESE,120,17.0,27.0,79,0.00,,,0.00,,2013-05-25 20:32:00,
2013-05-25 15:42:00,56.0,50.0,-100.00,ESE,110,15.0,22.0,79,0.00,,,0.00,,2013-05-25 20:42:00,
2013-05-25 15:52:00,56.0,50.0,-100.00,SE,125,17.0,24.0,79,0.00,,,0.00,,2013-05-25 20:52:00,
2013-05-25 16:02:00,56.0,50.0,-100.00,SE,125,17.0,27.0,80,0.00,,,0.00,,2013-05-25 21:02:00,
2013-05-25 16:11:00,56.0,50.0,-100.00,ESE,115,14.0,23.0,80,0.00,,,0.00,,2013-05-25 21:11:00,
2013-05-25 16:21:00,56.0,50.0,-100.00,ESE,115,17.0,24.0,81,0.00,,,0.00,,2013-05-25 21:21:00,
2013-05-25 16:33:00,56.0,50.0,-100.00,SE,125,13.0,26.0,82,0.00,,,0.00,,2013-05-25 21:33:00,
2013-05-25 16:43:00,56.0,50.0,-100.00,ESE,120,15.0,26.0,82,0.00,,,0.00,,2013-05-25 21:43:00,
2013-05-25 16:53:00,56.0,50.0,-100.00,ESE,115,14.0,26.0,83,0.00,,,0.00,,2013-05-25 21:53:00,
2013-05-25 17:03:00,56.0,52.0,-100.00,ESE,110,17.0,24.0,83,0.00,,,0.00,,2013-05-25 22:03:00,
2013-05-25 17:12:00,56.0,50.0,-100.00,ESE,110,17.0,24.0,83,0.00,,,0.00,,2013-05-25 22:12:00,
2013-05-25 17:22:00,56.0,50.0,-100.00,ESE,110,14.0,24.0,83,0.00,,,0.00,,2013-05-25 22:22:00,
2013-05-25 17:32:00,56.0,50.0,-100.00,ESE,115,11.0,24.0,83,0.00,,,0.00,,2013-05-25 22:32:00,
2013-05-25 17:42:00,55.0,50.0,-100.00,SE,125,16.0,24.0,84,0.00,,,0.00,,2013-05-25 22:42:00,
2013-05-25 17:52:00,55.0,50.0,-100.00,ESE,115,14.0,24.0,85,0.00,,,0.00,,2013-05-25 22:52:00,
2013-05-25 18:02:00,55.0,50.0,-100.00,ESE,120,14.0,24.0,85,0.00,,,0.00,,2013-05-25 23:02:00,
2013-05-25 18:12:00,55.0,50.0,-100.00,SE,125,14.0,24.0,85,0.00,,,0.00,,2013-05-25 23:12:00,
2013-05-25 18:22:00,55.0,50.0,-100.00,SE,125,12.0,28.0,85,0.00,,,0.00,,2013-05-25 23:22:00,
2013-05-25 18:32:00,54.0,50.0,-100.00,ESE,120,19.0,26.0,86,0.00,,,0.00,,2013-05-25 23:32:00,
2013-05-25 18:42:00,54.0,50.0,-100.00,ESE,120,16.0,23.0,87,0.00,,,0.00,,2013-05-25 23:42:00,
2013-05-25 18:52:00,54.0,50.0,-100.00,ESE,110,18.0,26.0,87,0.00,,,0.00,,2013-05-25 23:52:00,
2013-05-25 19:01:00,54.0,50.0,-100.00,ESE,120,19.0,27.0,88,0.00,,,0.00,,2013-05-26 00:01:00,
2013-05-25 19:11:00,54.0,50.0,-100.00,ESE,115,17.0,27.0,88,0.00,,,0.00,,2013-05-26 00:11:00,
2013-05-25 19:21:00,53.0,50.0,-100.00,ESE,110,18.0,26.0,89,0.00,,,0.00,,2013-05-26 00:21:00,
2013-05-25 19:31:00,53.0,50.0,-100.00,ESE,115,16.0,24.0,91,0.00,,,0.00,,2013-05-26 00:31:00,
2013-05-25 19:42:00,53.0,50.0,-100.00,SE,125,14.0,24.0,90,0.00,,,0.00,,2013-05-26 00:42:00,
2013-05-25 19:52:00,53.0,50.0,-100.00,ESE,110,14.0,22.0,91,0.00,,,0.00,,2013-05-26 00:52:00,
2013-05-25 20:01:00,53.0,50.0,-100.00,ESE,120,14.0,21.0,92,0.00,,,0.00,,2013-05-26 01:01:00,
2013-05-25 20:11:00,52.0,50.0,-100.00,ESE,120,14.0,21.0,92,0.00,,,0.00,,2013-05-26 01:11:00,
2013-05-25 20:21:00,53.0,50.0,-100.00,ESE,115,19.0,22.0,90,0.00,,,0.00,,2013-05-26 01:21:00,
2013-05-25 20:32:00,53.0,50.0,-100.00,ESE,120,15.0,24.0,87,0.00,,,0.00,,2013-05-26 01:32:00,
2013-05-25 20:42:00,53.0,50.0,-100.00,ESE,115,17.0,24.0,87,0.00,,,0.00,,2013-05-26 01:42:00,
2013-05-25 20:52:00,53.0,50.0,-100.00,SE,125,17.0,23.0,86,0.00,,,0.00,,2013-05-26 01:52:00,
2013-05-25 21:02:00,53.0,50.0,-100.00,ESE,120,11.0,19.0,86,0.00,,,0.00,,2013-05-26 02:02:00,
2013-05-25 21:11:00,53.0,50.0,-100.00,ESE,120,14.0,18.0,86,0.00,,,0.00,,2013-05-26 02:11:00,
2013-05-25 21:21:00,53.0,50.0,-100.00,SE,125,10.0,19.0,87,0.00,,,0.00,,2013-05-26 02:21:00,
2013-05-25 21:32:00,53.0,48.0,-100.00,ESE,120,15.0,24.0,86,0.00,,,0.00,,2013-05-26 02:32:00,
2013-05-25 21:41:00,53.0,48.0,-100.00,ESE,110,15.0,21.0,86,0.00,,,0.00,,2013-05-26 02:41:00,
2013-05-25 21:52:00,53.0,48.0,-100.00,ESE,115,17.0,26.0,85,0.00,,,0.00,,2013-05-26 02:52:00,
2013-05-25 22:01:00,53.0,48.0,-100.00,SE,125,17.0,24.0,85,0.00,,,0.00,,2013-05-26 03:01:00,
2013-05-25 22:11:00,53.0,48.0,-100.00,ESE,120,14.0,21.0,85,0.00,,,0.00,,2013-05-26 03:11:00,
2013-05-25 22:21:00,53.0,48.0,-100.00,SE,125,17.0,27.0,83,0.00,,,0.00,,2013-05-26 03:21:00,
2013-05-25 22:33:00,53.0,48.0,-100.00,SE,125,13.0,21.0,83,0.00,,,0.00,,2013-05-26 03:33:00,
2013-05-25 22:42:00,53.0,48.0,-100.00,SE,125,14.0,25.0,82,0.00,,,0.00,,2013-05-26 03:42:00,
2013-05-25 22:53:00,53.0,48.0,-100.00,ESE,120,17.0,24.0,82,0.00,,,0.00,,2013-05-26 03:53:00,
2013-05-25 23:02:00,53.0,48.0,-100.00,SE,130,17.0,22.0,82,0.00,,,0.00,,2013-05-26 04:02:00,
2013-05-25 23:12:00,53.0,48.0,-100.00,SE,125,13.0,21.0,82,0.00,,,0.00,,2013-05-26 04:12:00,
2013-05-25 23:23:00,52.0,46.0,-100.00,SE,130,14.0,20.0,82,0.00,,,0.00,,2013-05-26 04:23:00,
2013-05-25 23:33:00,52.0,46.0,-100.00,ESE,115,16.0,26.0,80,0.00,,,0.00,,2013-05-26 04:33:00,
2013-05-25 23:42:00,52.0,46.0,-100.00,ESE,120,12.0,22.0,79,0.00,,,0.00,,2013-05-26 04:42:00,
2013-05-25 23:52:00,52.0,46.0,-100.00,SE,125,12.0,22.0,79,0.00,,,0.00,,2013-05-26 04:52:00,